FW9437 Weather Reports


time (UTC)temp
F
wind
direction
speed
knots
gust
knots
rain 1hr
in
rain 24hr
in
rain mn
in
humidity
%
barometer
mb
20260510203057 83 300 1.7 2.6 0.00 0.00 0.00 48 1016.2
20260510201559 83 298 2.6 4.3 0.00 0.00 0.00 47 1016.2
20260510200117 84 308 0.9 2.6 0.00 0.00 0.00 44 1016.4
20260510194626 84 201 0.0 1.7 0.00 0.00 0.00 48 1016.6
20260510193107 85 223 0.0 1.7 0.00 0.00 0.00 49 1016.7
20260510191608 83 309 0.0 2.6 0.00 0.00 0.00 47 1016.7
20260510190100 82 112 0.0 3.5 0.00 0.00 0.00 44 1016.7
20260510184553 82 294 0.0 2.6 0.00 0.00 0.00 48 1016.7
20260510183057 82 326 0.9 2.6 0.00 0.00 0.00 50 1016.8
20260510181552 82 150 0.0 2.6 0.00 0.00 0.00 48 1016.8
20260510180056 81 311 1.7 4.3 0.00 0.00 0.00 47 1016.9
20260510174558 81 8 2.6 5.2 0.00 0.00 0.00 45 1017.1
20260510173101 80 312 1.7 7.0 0.00 0.00 0.00 50 1017.3
20260510171559 81 300 2.6 6.1 0.00 0.00 0.00 49 1017.4
20260510170106 82 216 1.7 7.0 0.00 0.00 0.00 53 1017.4
20260510164556 83 204 0.9 2.6 0.00 0.00 0.00 47 1017.5
20260510163058 82 0 0.0 1.7 0.00 0.00 0.00 51 1017.5
20260510161554 79 267 0.0 2.6 0.00 0.00 0.00 58 1017.3
20260510160055 77 334 2.6 4.3 0.00 0.00 0.00 57 1017.4
20260510154555 77 303 1.7 4.3 0.00 0.00 0.00 60 1017.4
20260510153052 77 0 0.9 3.5 0.00 0.00 0.00 59 1017.2
20260510151553 75 288 0.0 1.7 0.00 0.00 0.00 61 1017.2
20260510150055 74 298 0.0 3.5 0.00 0.00 0.00 66 1017.1
20260510144554 75 293 0.0 0.9 0.00 0.00 0.00 68 1017.1
20260510143055 73 0 0.0 1.7 0.00 0.00 0.00 69 1016.8
20260510141602 71 0 0.0 0.9 0.00 0.00 0.00 79 1016.9
20260510140056 68 0 0.0 1.7 0.00 0.00 0.00 84 1017.0
20260510134604 65 243 0.0 3.5 0.00 0.00 0.00 89 1017.2
20260510133107 63 0 0.0 0.9 0.00 0.00 0.00 92 1017.1
20260510131602 61 228 0.0 1.7 0.00 0.00 0.00 93 1017.1
20260510130054 60 0 0.0 0.9 0.00 0.00 0.00 95 1017.0
20260510124558 59 290 0.0 0.0 0.00 0.00 0.00 95 1016.8
20260510123102 57 0 0.0 0.9 0.00 0.00 0.00 95 1016.6
20260510121554 55 0 0.0 0.9 0.00 0.00 0.00 95 1016.6
20260510120056 54 0 0.0 0.0 0.00 0.00 0.00 94 1016.3
20260510114557 53 0 0.0 0.0 0.00 0.00 0.00 94 1016.1
20260510113055 52 0 0.0 0.0 0.00 0.00 0.00 94 1015.8
20260510111600 52 0 0.0 0.0 0.00 0.00 0.00 94 1015.4
20260510110055 52 0 0.0 0.0 0.00 0.00 0.00 94 1015.2
20260510104558 52 0 0.0 0.0 0.00 0.00 0.00 94 1014.8
20260510103100 52 0 0.0 0.0 0.00 0.00 0.00 93 1014.5
20260510101556 52 0 0.0 0.0 0.00 0.00 0.00 93 1014.4
20260510100055 52 0 0.0 0.0 0.00 0.00 0.00 93 1014.3
20260510094559 52 0 0.0 0.0 0.00 0.00 0.00 93 1014.1
20260510093059 52 0 0.0 0.0 0.00 0.00 0.00 93 1014.1
20260510091559 52 0 0.0 0.9 0.00 0.00 0.00 93 1014.2
20260510090059 52 0 0.0 0.0 0.00 0.00 0.00 93 1014.1
20260510084555 52 0 0.0 0.0 0.00 0.00 0.00 93 1014.0
20260510083057 52 0 0.0 0.0 0.00 0.00 0.00 93 1013.8
20260510081556 52 0 0.0 0.9 0.00 0.00 0.00 93 1013.8
20260510080054 52 0 0.0 0.0 0.00 0.00 0.00 92 1013.7
20260510074557 52 0 0.0 0.0 0.00 0.00 0.00 92 1013.8
20260510073112 52 0 0.0 0.0 0.00 0.00 0.00 92 1013.7
20260510071605 52 0 0.0 0.0 0.00 0.00 0.00 92 1013.9
20260510070056 53 0 0.0 0.0 0.00 0.00 0.00 92 1013.6
20260510064600 52 0 0.0 0.9 0.00 0.00 0.00 91 1013.4
20260510063058 53 0 0.0 0.0 0.00 0.00 0.00 92 1013.4
20260510061556 53 0 0.0 0.0 0.00 0.00 0.00 92 1013.4
20260510060055 53 0 0.0 0.0 0.00 0.00 0.00 91 1013.4
20260510054555 53 0 0.0 0.0 0.00 0.00 0.00 91 1013.4
20260510053054 54 0 0.0 0.0 0.00 0.00 0.00 90 1013.5
20260510051557 54 0 0.0 0.0 0.00 0.00 0.00 90 1013.4
20260510050059 54 0 0.0 0.0 0.00 0.00 0.00 90 1013.4
20260510044554 54 0 0.0 0.9 0.00 0.00 0.00 89 1013.4
20260510043108 55 0 0.0 0.9 0.00 0.00 0.00 89 1013.4
20260510041558 55 0 0.0 0.0 0.00 0.00 0.00 88 1013.4
20260510040109 56 0 0.0 0.0 0.00 0.00 0.00 87 1013.2
20260510034600 56 0 0.0 0.0 0.00 0.00 0.00 87 1013.3
20260510033055 57 0 0.0 0.9 0.00 0.00 0.00 86 1013.4
20260510031557 58 0 0.0 0.9 0.00 0.00 0.00 85 1013.4
20260510030053 58 0 0.0 0.0 0.00 0.00 0.00 84 1013.2
20260510024555 58 0 0.0 0.0 0.00 0.00 0.00 83 1013.0
20260510023055 59 0 0.0 0.0 0.00 0.00 0.00 83 1013.0
20260510021600 60 0 0.0 0.9 0.00 0.00 0.00 83 1012.7
20260510020055 61 98 0.9 0.9 0.00 0.00 0.00 82 1012.6
20260510014611 62 98 0.0 0.9 0.00 0.00 0.00 80 1012.2
20260510013055 63 0 0.0 0.0 0.00 0.00 0.00 79 1012.2
20260510011553 64 0 0.0 0.9 0.00 0.00 0.00 78 1011.9
20260510010054 66 0 0.0 0.9 0.00 0.00 0.00 74 1011.9
20260510004556 68 98 0.0 0.9 0.00 0.00 0.00 72 1011.7
20260510003058 69 98 0.0 0.9 0.00 0.00 0.00 68 1011.5
20260510001555 72 0 0.0 0.9 0.00 0.00 0.00 61 1011.5
20260510000059 75 0 0.0 0.0 0.00 0.00 0.00 52 1011.3
20260509234607 76 0 0.0 0.0 0.00 0.00 0.00 49 1011.2
20260509233101 77 0 0.0 0.9 0.00 0.00 0.00 48 1011.2
20260509231558 78 0 0.0 0.0 0.00 0.00 0.00 47 1011.0
20260509230058 78 0 0.0 0.9 0.00 0.00 0.00 44 1011.0
20260509224605 79 0 0.0 2.6 0.00 0.00 0.00 43 1011.1
20260509223059 80 0 0.0 2.6 0.00 0.00 0.00 44 1011.0
20260509221606 82 283 0.0 1.7 0.00 0.00 0.00 43 1011.0
20260509220100 81 0 0.9 3.5 0.00 0.00 0.00 42 1011.0
20260509214607 84 0 0.0 1.7 0.00 0.00 0.00 39 1011.1
20260509213110 84 0 0.9 3.5 0.00 0.00 0.00 38 1011.0
20260509211602 82 222 0.9 3.5 0.00 0.00 0.00 41 1011.0
20260509210116 80 333 1.7 3.5 0.00 0.00 0.00 44 1010.9
20260509204607 81 0 0.9 3.5 0.00 0.00 0.00 45 1010.8